| time (UTC) | temp F | wind direction | speed MPH | gust MPH | rain 1hr in | rain 24hr in | rain mn in | humidity % | barometer mb |
| 20260508072556 | 33 | 288 | 0.0 | 0.0 | 0.00 | 0.00 | 0.00 | 96 | 1017.2 |
| 20260508072054 | 33 | 288 | 0.0 | 0.0 | 0.00 | 0.00 | 0.00 | 96 | 1017.2 |
| 20260508071552 | 34 | 288 | 0.0 | 0.0 | 0.00 | 0.00 | 0.00 | 96 | 1017.3 |
| 20260508071050 | 34 | 288 | 0.0 | 0.0 | 0.00 | 0.00 | 0.00 | 96 | 1017.1 |
| 20260508070547 | 34 | 288 | 0.0 | 0.0 | 0.00 | 0.00 | 0.00 | 96 | 1017.2 |
| 20260508070045 | 34 | 288 | 0.0 | 0.0 | 0.00 | 0.00 | 0.00 | 95 | 1017.1 |
| 20260508065542 | 34 | 288 | 0.0 | 0.0 | 0.00 | 0.00 | 0.00 | 95 | 1017.2 |
| 20260508065041 | 34 | 288 | 0.0 | 0.0 | 0.00 | 0.00 | 0.00 | 95 | 1017.1 |
| 20260508064538 | 35 | 288 | 0.0 | 0.0 | 0.00 | 0.00 | 0.00 | 95 | 1017.2 |
| 20260508064036 | 35 | 288 | 0.0 | 0.0 | 0.00 | 0.00 | 0.00 | 95 | 1017.4 |
| 20260508063533 | 35 | 288 | 0.0 | 0.0 | 0.00 | 0.00 | 0.00 | 94 | 1017.3 |
| 20260508063031 | 35 | 288 | 0.0 | 0.0 | 0.00 | 0.00 | 0.00 | 94 | 1017.3 |
| 20260508062528 | 36 | 288 | 0.0 | 0.0 | 0.00 | 0.00 | 0.00 | 94 | 1017.3 |
| 20260508062024 | 36 | 288 | 0.0 | 0.0 | 0.00 | 0.00 | 0.00 | 94 | 1017.4 |
| 20260508061522 | 37 | 288 | 0.0 | 0.0 | 0.00 | 0.00 | 0.00 | 94 | 1017.7 |
| 20260508061019 | 38 | 288 | 0.0 | 0.0 | 0.00 | 0.00 | 0.00 | 94 | 1017.5 |
| 20260508060516 | 38 | 288 | 0.0 | 0.0 | 0.00 | 0.00 | 0.00 | 94 | 1017.4 |
| 20260508060013 | 38 | 288 | 0.0 | 0.0 | 0.00 | 0.00 | 0.00 | 94 | 1017.2 |
| 20260508055509 | 38 | 288 | 0.0 | 0.0 | 0.00 | 0.00 | 0.00 | 93 | 1017.2 |
| 20260508055006 | 38 | 288 | 0.0 | 0.0 | 0.00 | 0.00 | 0.00 | 94 | 1017.1 |
| 20260508054502 | 38 | 288 | 0.0 | 0.0 | 0.00 | 0.00 | 0.00 | 93 | 1017.0 |
| 20260508053959 | 38 | 288 | 0.0 | 0.0 | 0.00 | 0.00 | 0.00 | 93 | 1017.1 |
| 20260508053456 | 39 | 288 | 0.0 | 0.0 | 0.00 | 0.00 | 0.00 | 92 | 1016.8 |
| 20260508052954 | 39 | 288 | 0.0 | 0.0 | 0.00 | 0.00 | 0.00 | 92 | 1016.9 |
| 20260508052451 | 39 | 288 | 0.0 | 0.0 | 0.00 | 0.00 | 0.00 | 91 | 1016.7 |
| 20260508051948 | 39 | 288 | 0.0 | 0.0 | 0.00 | 0.00 | 0.00 | 90 | 1016.7 |
| 20260508051443 | 38 | 288 | 0.0 | 0.0 | 0.00 | 0.00 | 0.00 | 92 | 1016.8 |
| 20260508050939 | 38 | 288 | 0.0 | 0.0 | 0.00 | 0.00 | 0.00 | 92 | 1016.7 |
| 20260508050436 | 38 | 288 | 0.0 | 0.0 | 0.00 | 0.00 | 0.00 | 91 | 1016.8 |
| 20260508045933 | 38 | 288 | 0.0 | 0.0 | 0.00 | 0.00 | 0.00 | 90 | 1016.7 |
| 20260508045430 | 39 | 288 | 0.0 | 0.0 | 0.00 | 0.00 | 0.00 | 89 | 1016.6 |
| 20260508044928 | 39 | 288 | 0.0 | 0.0 | 0.00 | 0.00 | 0.00 | 88 | 1016.8 |
| 20260508044425 | 39 | 288 | 0.0 | 0.0 | 0.00 | 0.00 | 0.00 | 87 | 1016.6 |
| 20260508043920 | 39 | 288 | 0.0 | 0.0 | 0.00 | 0.00 | 0.00 | 88 | 1016.8 |
| 20260508043418 | 39 | 288 | 0.0 | 0.0 | 0.00 | 0.00 | 0.00 | 89 | 1016.7 |
| 20260508042914 | 40 | 288 | 0.0 | 0.0 | 0.00 | 0.00 | 0.00 | 88 | 1016.7 |
| 20260508042412 | 40 | 288 | 0.0 | 0.0 | 0.00 | 0.00 | 0.00 | 88 | 1016.8 |
| 20260508041908 | 40 | 288 | 0.0 | 0.0 | 0.00 | 0.00 | 0.00 | 89 | 1016.7 |
| 20260508041405 | 40 | 288 | 0.0 | 0.0 | 0.00 | 0.00 | 0.00 | 88 | 1016.6 |
| 20260508040901 | 40 | 288 | 0.0 | 0.0 | 0.00 | 0.00 | 0.00 | 88 | 1016.6 |
| 20260508040358 | 40 | 288 | 0.0 | 0.0 | 0.00 | 0.00 | 0.00 | 88 | 1016.6 |
| 20260508035856 | 40 | 288 | 0.0 | 0.0 | 0.00 | 0.00 | 0.00 | 88 | 1016.4 |
| 20260508035353 | 40 | 288 | 0.0 | 0.0 | 0.00 | 0.00 | 0.00 | 87 | 1016.6 |
| 20260508034850 | 40 | 288 | 0.0 | 0.0 | 0.00 | 0.00 | 0.00 | 88 | 1016.5 |
| 20260508034347 | 40 | 288 | 0.0 | 0.0 | 0.00 | 0.00 | 0.00 | 88 | 1016.4 |
| 20260508033844 | 41 | 288 | 0.0 | 0.0 | 0.00 | 0.00 | 0.00 | 87 | 1016.6 |
| 20260508033342 | 41 | 288 | 0.0 | 0.0 | 0.00 | 0.00 | 0.00 | 85 | 1016.7 |
| 20260508032839 | 41 | 288 | 0.0 | 0.0 | 0.00 | 0.00 | 0.00 | 85 | 1016.2 |
| 20260508032337 | 41 | 288 | 0.0 | 0.0 | 0.00 | 0.00 | 0.00 | 85 | 1016.4 |
| 20260508031833 | 42 | 288 | 0.0 | 0.0 | 0.00 | 0.00 | 0.00 | 84 | 1016.3 |
| 20260508031330 | 42 | 288 | 0.0 | 0.0 | 0.00 | 0.00 | 0.00 | 84 | 1016.2 |
| 20260508030826 | 42 | 288 | 0.0 | 0.0 | 0.00 | 0.00 | 0.00 | 84 | 1016.2 |
| 20260508030319 | 42 | 288 | 0.0 | 0.0 | 0.00 | 0.00 | 0.00 | 83 | 1016.2 |
| 20260508025815 | 42 | 288 | 0.0 | 0.0 | 0.00 | 0.00 | 0.00 | 83 | 1016.1 |
| 20260508025312 | 43 | 288 | 0.0 | 0.0 | 0.00 | 0.00 | 0.00 | 82 | 1016.2 |
| 20260508024809 | 43 | 288 | 0.0 | 0.0 | 0.00 | 0.00 | 0.00 | 82 | 1015.9 |
| 20260508024305 | 43 | 288 | 0.0 | 0.0 | 0.00 | 0.00 | 0.00 | 81 | 1015.8 |
| 20260508023802 | 43 | 288 | 0.0 | 0.0 | 0.00 | 0.00 | 0.00 | 82 | 1015.9 |
| 20260508023259 | 44 | 288 | 0.0 | 0.0 | 0.00 | 0.00 | 0.00 | 82 | 1015.8 |
| 20260508022755 | 44 | 288 | 0.0 | 0.0 | 0.00 | 0.00 | 0.00 | 82 | 1015.8 |
| 20260508022251 | 44 | 288 | 0.0 | 0.0 | 0.00 | 0.00 | 0.00 | 80 | 1015.6 |
| 20260508021749 | 44 | 288 | 0.0 | 0.0 | 0.00 | 0.00 | 0.00 | 79 | 1015.4 |
| 20260508021244 | 45 | 288 | 0.0 | 0.0 | 0.00 | 0.00 | 0.00 | 80 | 1015.4 |
| 20260508020741 | 45 | 288 | 0.0 | 0.0 | 0.00 | 0.00 | 0.00 | 80 | 1015.2 |
| 20260508020239 | 45 | 288 | 0.0 | 0.0 | 0.00 | 0.00 | 0.00 | 77 | 1015.3 |
| 20260508015736 | 45 | 288 | 0.0 | 0.0 | 0.00 | 0.00 | 0.00 | 78 | 1015.1 |
| 20260508015233 | 46 | 288 | 0.0 | 0.0 | 0.00 | 0.00 | 0.00 | 79 | 1015.2 |
| 20260508014730 | 46 | 288 | 0.0 | 0.0 | 0.00 | 0.00 | 0.00 | 78 | 1015.1 |
| 20260508014226 | 46 | 288 | 0.0 | 0.0 | 0.00 | 0.00 | 0.00 | 78 | 1015.1 |
| 20260508013722 | 46 | 288 | 0.0 | 0.0 | 0.00 | 0.00 | 0.00 | 76 | 1015.1 |
| 20260508013218 | 46 | 288 | 0.0 | 0.0 | 0.00 | 0.00 | 0.00 | 77 | 1015.0 |
| 20260508012716 | 46 | 288 | 0.0 | 0.0 | 0.00 | 0.00 | 0.00 | 76 | 1014.9 |
| 20260508012212 | 47 | 288 | 0.0 | 1.0 | 0.00 | 0.00 | 0.00 | 75 | 1014.7 |
| 20260508011711 | 47 | 288 | 0.0 | 0.0 | 0.00 | 0.00 | 0.00 | 73 | 1014.7 |
| 20260508011208 | 47 | 288 | 0.0 | 0.0 | 0.00 | 0.00 | 0.00 | 76 | 1014.7 |
| 20260508010704 | 47 | 288 | 0.0 | 1.0 | 0.00 | 0.00 | 0.00 | 77 | 1014.8 |
| 20260508010203 | 47 | 288 | 0.0 | 0.0 | 0.00 | 0.00 | 0.00 | 78 | 1014.7 |
| 20260508005700 | 47 | 288 | 0.0 | 1.0 | 0.00 | 0.00 | 0.00 | 77 | 1014.4 |
| 20260508005156 | 47 | 288 | 0.0 | 1.0 | 0.00 | 0.00 | 0.00 | 79 | 1014.4 |
| 20260508004652 | 47 | 288 | 1.0 | 1.0 | 0.00 | 0.00 | 0.00 | 79 | 1014.3 |
| 20260508004148 | 48 | 288 | 0.0 | 1.0 | 0.00 | 0.00 | 0.00 | 79 | 1014.2 |
| 20260508003645 | 49 | 288 | 0.0 | 1.0 | 0.00 | 0.00 | 0.00 | 76 | 1014.2 |
| 20260508003137 | 49 | 288 | 0.0 | 0.0 | 0.00 | 0.00 | 0.00 | 76 | 1014.2 |
| 20260508002633 | 50 | 288 | 0.0 | 0.0 | 0.00 | 0.00 | 0.00 | 71 | 1014.2 |
| 20260508002131 | 50 | 288 | 0.0 | 1.0 | 0.00 | 0.00 | 0.00 | 71 | 1014.1 |
| 20260508001626 | 51 | 288 | 1.0 | 1.0 | 0.00 | 0.00 | 0.00 | 69 | 1014.0 |
| 20260508001122 | 51 | 288 | 0.0 | 1.0 | 0.00 | 0.00 | 0.00 | 68 | 1014.0 |
| 20260508000618 | 52 | 288 | 0.0 | 1.0 | 0.00 | 0.00 | 0.00 | 68 | 1014.0 |
| 20260508000116 | 52 | 288 | 1.0 | 1.0 | 0.00 | 0.00 | 0.00 | 65 | 1014.0 |
| 20260507235612 | 53 | 288 | 1.0 | 2.0 | 0.00 | 0.00 | 0.00 | 65 | 1013.9 |
| 20260507235110 | 53 | 288 | 1.0 | 2.0 | 0.00 | 0.00 | 0.00 | 65 | 1013.7 |
| 20260507234606 | 53 | 309 | 1.0 | 2.0 | 0.00 | 0.00 | 0.00 | 64 | 1013.8 |
| 20260507234103 | 54 | 309 | 2.0 | 3.0 | 0.00 | 0.00 | 0.00 | 62 | 1013.8 |
| 20260507233600 | 54 | 309 | 1.0 | 3.0 | 0.00 | 0.00 | 0.00 | 61 | 1013.9 |
| 20260507233059 | 55 | 309 | 1.0 | 2.0 | 0.00 | 0.00 | 0.00 | 61 | 1013.8 |
| 20260507232554 | 56 | 291 | 3.0 | 4.0 | 0.00 | 0.00 | 0.00 | 59 | 1013.7 |
| 20260507232052 | 55 | 295 | 3.0 | 6.0 | 0.00 | 0.00 | 0.00 | 58 | 1013.8 |
| 20260507231548 | 56 | 290 | 4.0 | 6.0 | 0.00 | 0.00 | 0.00 | 58 | 1013.7 |
| 20260507231045 | 56 | 329 | 2.0 | 6.0 | 0.00 | 0.00 | 0.00 | 60 | 1013.5 |
| 20260507230541 | 56 | 289 | 4.0 | 6.0 | 0.00 | 0.00 | 0.00 | 60 | 1013.5 |
| 20260507230038 | 56 | 295 | 3.0 | 4.0 | 0.00 | 0.00 | 0.00 | 60 | 1013.4 |
| 20260507225533 | 56 | 295 | 2.0 | 3.0 | 0.00 | 0.00 | 0.00 | 60 | 1013.4 |
| 20260507225029 | 55 | 302 | 1.0 | 6.0 | 0.00 | 0.00 | 0.00 | 62 | 1013.2 |
| 20260507224525 | 55 | 301 | 2.0 | 4.0 | 0.00 | 0.00 | 0.00 | 60 | 1013.3 |
| 20260507224022 | 56 | 296 | 4.0 | 4.0 | 0.00 | 0.00 | 0.00 | 59 | 1013.2 |
| 20260507223518 | 56 | 299 | 3.0 | 4.0 | 0.00 | 0.00 | 0.00 | 60 | 1013.1 |
| 20260507223016 | 56 | 294 | 1.0 | 2.0 | 0.00 | 0.00 | 0.00 | 61 | 1013.3 |
| 20260507222513 | 56 | 291 | 2.0 | 2.0 | 0.00 | 0.00 | 0.00 | 62 | 1013.2 |
| 20260507222008 | 56 | 296 | 3.0 | 6.0 | 0.00 | 0.00 | 0.00 | 58 | 1013.2 |
| 20260507221505 | 57 | 295 | 1.0 | 3.0 | 0.00 | 0.00 | 0.00 | 60 | 1012.9 |
| 20260507221002 | 59 | 295 | 1.0 | 2.0 | 0.00 | 0.00 | 0.00 | 59 | 1012.8 |
| 20260507220459 | 60 | 295 | 2.0 | 3.0 | 0.00 | 0.00 | 0.00 | 54 | 1012.9 |
| 20260507215956 | 61 | 295 | 3.0 | 3.0 | 0.00 | 0.00 | 0.00 | 54 | 1012.9 |
| 20260507215452 | 59 | 292 | 2.0 | 4.0 | 0.00 | 0.00 | 0.00 | 56 | 1012.6 |
| 20260507214950 | 60 | 290 | 4.0 | 7.0 | 0.00 | 0.00 | 0.00 | 56 | 1012.9 |
| 20260507214447 | 61 | 284 | 3.0 | 3.0 | 0.00 | 0.00 | 0.00 | 54 | 1012.6 |
| 20260507213943 | 60 | 295 | 2.0 | 3.0 | 0.00 | 0.00 | 0.00 | 57 | 1012.7 |
| 20260507213439 | 62 | 310 | 4.0 | 4.0 | 0.00 | 0.00 | 0.00 | 53 | 1012.6 |
| 20260507212937 | 62 | 306 | 3.0 | 4.0 | 0.00 | 0.00 | 0.00 | 55 | 1012.6 |
| 20260507212432 | 62 | 304 | 3.0 | 4.0 | 0.00 | 0.00 | 0.00 | 51 | 1012.5 |
| 20260507211930 | 60 | 303 | 2.0 | 4.0 | 0.00 | 0.00 | 0.00 | 57 | 1012.6 |
| 20260507211426 | 62 | 300 | 5.0 | 7.0 | 0.00 | 0.00 | 0.00 | 53 | 1012.4 |
| 20260507210923 | 61 | 305 | 3.0 | 7.0 | 0.00 | 0.00 | 0.00 | 55 | 1012.4 |
| 20260507210420 | 59 | 282 | 3.0 | 3.0 | 0.00 | 0.00 | 0.00 | 60 | 1012.4 |
| 20260507205916 | 60 | 320 | 2.0 | 3.0 | 0.00 | 0.00 | 0.00 | 58 | 1012.5 |
| 20260507205414 | 60 | 263 | 7.0 | 8.0 | 0.00 | 0.00 | 0.00 | 56 | 1012.6 |
| 20260507204910 | 60 | 302 | 3.0 | 6.0 | 0.00 | 0.00 | 0.00 | 60 | 1012.3 |
| 20260507204406 | 59 | 303 | 3.0 | 6.0 | 0.00 | 0.00 | 0.00 | 58 | 1012.5 |
| 20260507203904 | 60 | 291 | 4.0 | 9.0 | 0.00 | 0.00 | 0.00 | 58 | 1012.4 |
| 20260507203402 | 59 | 302 | 5.0 | 13.0 | 0.00 | 0.00 | 0.00 | 57 | 1012.5 |
| 20260507202858 | 60 | 287 | 8.0 | 10.0 | 0.00 | 0.00 | 0.00 | 59 | 1012.6 |
| 20260507202354 | 60 | 316 | 5.0 | 10.0 | 0.00 | 0.00 | 0.00 | 58 | 1012.7 |
| 20260507201850 | 60 | 288 | 3.0 | 7.0 | 0.00 | 0.00 | 0.00 | 60 | 1012.5 |
| 20260507201345 | 60 | 301 | 6.0 | 13.0 | 0.00 | 0.00 | 0.00 | 62 | 1012.5 |
| 20260507200842 | 60 | 281 | 3.0 | 10.0 | 0.00 | 0.00 | 0.00 | 61 | 1012.3 |
| 20260507200338 | 61 | 307 | 3.0 | 9.0 | 0.00 | 0.00 | 0.00 | 63 | 1012.5 |
| 20260507195834 | 61 | 303 | 2.0 | 8.0 | 0.00 | 0.00 | 0.00 | 64 | 1012.4 |
| 20260507195332 | 61 | 313 | 3.0 | 11.0 | 0.00 | 0.00 | 0.00 | 61 | 1012.4 |
| 20260507194829 | 60 | 303 | 1.0 | 6.0 | 0.00 | 0.00 | 0.00 | 62 | 1012.5 |
| 20260507194325 | 58 | 293 | 2.0 | 3.0 | 0.00 | 0.00 | 0.00 | 65 | 1012.6 |
| 20260507193822 | 58 | 294 | 2.0 | 4.0 | 0.00 | 0.00 | 0.00 | 66 | 1012.6 |
| 20260507193319 | 59 | 315 | 2.0 | 6.0 | 0.00 | 0.00 | 0.00 | 62 | 1012.8 |
| 20260507192814 | 58 | 288 | 2.0 | 4.0 | 0.00 | 0.00 | 0.00 | 67 | 1012.7 |
| 20260507192312 | 61 | 307 | 2.0 | 7.0 | 0.00 | 0.00 | 0.00 | 65 | 1012.7 |
| 20260507191808 | 60 | 284 | 2.0 | 6.0 | 0.00 | 0.00 | 0.00 | 62 | 1013.1 |
| 20260507191304 | 59 | 292 | 4.0 | 4.0 | 0.00 | 0.00 | 0.00 | 63 | 1013.1 |
| 20260507190801 | 58 | 277 | 4.0 | 8.0 | 0.00 | 0.00 | 0.00 | 63 | 1012.9 |
| 20260507190300 | 59 | 302 | 3.0 | 6.0 | 0.00 | 0.00 | 0.00 | 65 | 1012.8 |
| 20260507185758 | 59 | 289 | 1.0 | 4.0 | 0.00 | 0.00 | 0.00 | 62 | 1013.1 |
| 20260507185254 | 56 | 323 | 2.0 | 7.0 | 0.00 | 0.00 | 0.00 | 68 | 1013.4 |
| 20260507184752 | 56 | 310 | 1.0 | 4.0 | 0.00 | 0.00 | 0.00 | 69 | 1013.4 |
| 20260507184250 | 57 | 292 | 2.0 | 6.0 | 0.00 | 0.00 | 0.00 | 67 | 1013.4 |
| 20260507183747 | 55 | 289 | 2.0 | 3.0 | 0.00 | 0.00 | 0.00 | 68 | 1013.1 |
| 20260507183244 | 56 | 297 | 1.0 | 6.0 | 0.00 | 0.00 | 0.00 | 69 | 1013.1 |
| 20260507182742 | 57 | 296 | 2.0 | 3.0 | 0.00 | 0.00 | 0.00 | 67 | 1012.8 |
| 20260507182241 | 57 | 294 | 2.0 | 4.0 | 0.00 | 0.00 | 0.00 | 71 | 1013.1 |
| 20260507181739 | 56 | 294 | 2.0 | 4.0 | 0.00 | 0.00 | 0.00 | 72 | 1013.2 |
| 20260507181235 | 56 | 296 | 2.0 | 7.0 | 0.00 | 0.00 | 0.00 | 72 | 1012.8 |
| 20260507180732 | 56 | 291 | 2.0 | 4.0 | 0.00 | 0.00 | 0.00 | 73 | 1013.1 |
| 20260507180229 | 57 | 274 | 3.0 | 7.0 | 0.00 | 0.00 | 0.00 | 70 | 1013.1 |
| 20260507175724 | 57 | 297 | 2.0 | 8.0 | 0.00 | 0.00 | 0.00 | 70 | 1012.9 |
| 20260507175221 | 57 | 284 | 3.0 | 3.0 | 0.00 | 0.00 | 0.00 | 74 | 1013.1 |
| 20260507174719 | 56 | 287 | 1.0 | 4.0 | 0.00 | 0.00 | 0.00 | 72 | 1013.2 |
| 20260507174217 | 56 | 295 | 3.0 | 7.0 | 0.00 | 0.00 | 0.00 | 73 | 1013.1 |
| 20260507173715 | 57 | 293 | 2.0 | 3.0 | 0.00 | 0.00 | 0.00 | 71 | 1013.1 |
| 20260507173211 | 57 | 268 | 4.0 | 4.0 | 0.00 | 0.00 | 0.00 | 72 | 1013.1 |
| 20260507172708 | 58 | 286 | 3.0 | 6.0 | 0.00 | 0.00 | 0.00 | 72 | 1013.2 |
| 20260507172204 | 56 | 271 | 4.0 | 7.0 | 0.00 | 0.00 | 0.00 | 74 | 1013.5 |
| 20260507171704 | 57 | 277 | 1.0 | 3.0 | 0.00 | 0.00 | 0.00 | 76 | 1013.4 |
| 20260507171202 | 56 | 331 | 1.0 | 3.0 | 0.00 | 0.00 | 0.00 | 71 | 1013.3 |
| 20260507170658 | 55 | 288 | 1.0 | 1.0 | 0.00 | 0.00 | 0.00 | 73 | 1013.3 |
| 20260507170156 | 54 | 289 | 3.0 | 4.0 | 0.00 | 0.00 | 0.00 | 78 | 1013.4 |
| 20260507165651 | 54 | 288 | 3.0 | 3.0 | 0.00 | 0.00 | 0.00 | 78 | 1013.5 |
| 20260507165148 | 53 | 288 | 0.0 | 1.0 | 0.00 | 0.00 | 0.00 | 79 | 1013.6 |
| 20260507164644 | 52 | 288 | 0.0 | 1.0 | 0.00 | 0.00 | 0.00 | 78 | 1013.8 |
| 20260507164141 | 52 | 288 | 1.0 | 2.0 | 0.00 | 0.00 | 0.00 | 78 | 1013.9 |
| 20260507163638 | 53 | 288 | 1.0 | 2.0 | 0.00 | 0.00 | 0.00 | 79 | 1013.9 |
| 20260507163136 | 52 | 288 | 2.0 | 3.0 | 0.00 | 0.00 | 0.00 | 77 | 1013.9 |
| 20260507162632 | 52 | 288 | 1.0 | 3.0 | 0.00 | 0.00 | 0.00 | 78 | 1013.9 |
| 20260507162128 | 53 | 296 | 3.0 | 4.0 | 0.00 | 0.00 | 0.00 | 78 | 1013.9 |
| 20260507161624 | 53 | 288 | 2.0 | 2.0 | 0.00 | 0.00 | 0.00 | 78 | 1013.9 |
| 20260507161121 | 52 | 288 | 3.0 | 3.0 | 0.00 | 0.00 | 0.00 | 78 | 1013.9 |
| 20260507160617 | 51 | 288 | 3.0 | 4.0 | 0.00 | 0.00 | 0.00 | 78 | 1013.9 |
| 20260507160114 | 52 | 282 | 3.0 | 4.0 | 0.00 | 0.00 | 0.00 | 77 | 1014.0 |
| 20260507155609 | 52 | 270 | 1.0 | 2.0 | 0.00 | 0.00 | 0.00 | 79 | 1014.1 |
| 20260507155107 | 51 | 270 | 2.0 | 2.0 | 0.00 | 0.00 | 0.00 | 83 | 1014.4 |
| 20260507154603 | 51 | 289 | 1.0 | 3.0 | 0.00 | 0.00 | 0.00 | 83 | 1014.2 |
| 20260507154100 | 51 | 289 | 2.0 | 4.0 | 0.00 | 0.00 | 0.00 | 81 | 1014.1 |
| 20260507153557 | 52 | 273 | 2.0 | 2.0 | 0.00 | 0.00 | 0.00 | 81 | 1014.1 |
| 20260507153054 | 50 | 273 | 1.0 | 2.0 | 0.00 | 0.00 | 0.00 | 83 | 1014.3 |
| 20260507152550 | 50 | 268 | 2.0 | 4.0 | 0.00 | 0.00 | 0.00 | 84 | 1014.2 |
| 20260507152046 | 50 | 287 | 2.0 | 4.0 | 0.00 | 0.00 | 0.00 | 82 | 1014.3 |
| 20260507151542 | 49 | 287 | 2.0 | 3.0 | 0.00 | 0.00 | 0.00 | 86 | 1014.2 |
| 20260507151039 | 49 | 287 | 2.0 | 2.0 | 0.00 | 0.00 | 0.00 | 86 | 1014.6 |
| 20260507150536 | 50 | 287 | 1.0 | 2.0 | 0.00 | 0.00 | 0.00 | 87 | 1014.4 |
| 20260507150033 | 49 | 287 | 2.0 | 3.0 | 0.00 | 0.00 | 0.00 | 86 | 1014.6 |
| 20260507145527 | 49 | 286 | 2.0 | 3.0 | 0.00 | 0.00 | 0.00 | 87 | 1014.4 |
| 20260507145026 | 49 | 285 | 2.0 | 3.0 | 0.00 | 0.00 | 0.00 | 86 | 1014.3 |
| 20260507144522 | 49 | 285 | 1.0 | 1.0 | 0.00 | 0.00 | 0.00 | 88 | 1014.6 |
| 20260507144020 | 49 | 285 | 2.0 | 3.0 | 0.00 | 0.00 | 0.00 | 86 | 1014.6 |
| 20260507143517 | 49 | 285 | 2.0 | 3.0 | 0.00 | 0.00 | 0.00 | 86 | 1014.3 |
| 20260507143014 | 49 | 285 | 1.0 | 1.0 | 0.00 | 0.00 | 0.00 | 88 | 1014.6 |
| 20260507142509 | 49 | 285 | 0.0 | 1.0 | 0.00 | 0.00 | 0.00 | 88 | 1014.6 |
| 20260507142007 | 49 | 285 | 0.0 | 1.0 | 0.00 | 0.00 | 0.00 | 88 | 1014.8 |
| 20260507141502 | 49 | 285 | 1.0 | 1.0 | 0.00 | 0.00 | 0.00 | 88 | 1014.7 |
| 20260507140959 | 49 | 285 | 1.0 | 2.0 | 0.00 | 0.00 | 0.00 | 88 | 1014.6 |
| 20260507140456 | 49 | 285 | 0.0 | 2.0 | 0.00 | 0.00 | 0.00 | 90 | 1014.4 |
| 20260507135953 | 49 | 285 | 1.0 | 1.0 | 0.00 | 0.00 | 0.00 | 90 | 1014.9 |
| 20260507135450 | 48 | 285 | 0.0 | 1.0 | 0.00 | 0.00 | 0.00 | 91 | 1014.9 |
| 20260507134947 | 48 | 285 | 1.0 | 1.0 | 0.00 | 0.00 | 0.00 | 91 | 1014.8 |
| 20260507134443 | 49 | 285 | 1.0 | 1.0 | 0.00 | 0.00 | 0.00 | 90 | 1014.8 |
| 20260507133935 | 48 | 285 | 0.0 | 1.0 | 0.00 | 0.00 | 0.00 | 92 | 1015.0 |
| 20260507133431 | 48 | 285 | 0.0 | 1.0 | 0.00 | 0.00 | 0.00 | 93 | 1015.0 |
| 20260507132929 | 48 | 285 | 1.0 | 1.0 | 0.00 | 0.00 | 0.00 | 91 | 1015.0 |
| 20260507132425 | 48 | 285 | 0.0 | 1.0 | 0.00 | 0.00 | 0.00 | 93 | 1015.0 |
| 20260507131921 | 48 | 285 | 2.0 | 3.0 | 0.00 | 0.00 | 0.00 | 91 | 1015.0 |
| 20260507131419 | 48 | 285 | 0.0 | 3.0 | 0.00 | 0.00 | 0.00 | 93 | 1014.9 |
| 20260507130916 | 48 | 285 | 1.0 | 1.0 | 0.00 | 0.00 | 0.00 | 92 | 1014.9 |
| 20260507130413 | 48 | 285 | 1.0 | 2.0 | 0.00 | 0.00 | 0.00 | 91 | 1015.1 |
| 20260507125912 | 48 | 285 | 0.0 | 1.0 | 0.00 | 0.00 | 0.00 | 92 | 1015.1 |
| 20260507125409 | 48 | 285 | 1.0 | 2.0 | 0.00 | 0.00 | 0.00 | 92 | 1014.8 |
| 20260507124906 | 48 | 285 | 1.0 | 2.0 | 0.00 | 0.00 | 0.00 | 92 | 1014.7 |
| 20260507124402 | 48 | 285 | 1.0 | 1.0 | 0.00 | 0.00 | 0.00 | 92 | 1014.8 |
| 20260507123901 | 48 | 285 | 0.0 | 1.0 | 0.00 | 0.00 | 0.00 | 93 | 1014.8 |
| 20260507123357 | 48 | 285 | 1.0 | 1.0 | 0.00 | 0.00 | 0.00 | 94 | 1014.8 |
| 20260507122854 | 49 | 283 | 0.0 | 1.0 | 0.00 | 0.00 | 0.00 | 94 | 1014.9 |
| 20260507122349 | 48 | 283 | 1.0 | 2.0 | 0.00 | 0.00 | 0.00 | 93 | 1014.6 |
| 20260507121846 | 48 | 283 | 0.0 | 1.0 | 0.00 | 0.00 | 0.00 | 95 | 1014.4 |
| 20260507121341 | 48 | 283 | 1.0 | 3.0 | 0.00 | 0.00 | 0.00 | 94 | 1014.7 |
| 20260507120838 | 48 | 283 | 0.0 | 1.0 | 0.00 | 0.00 | 0.00 | 96 | 1014.8 |
| 20260507120334 | 48 | 283 | 0.0 | 1.0 | 0.00 | 0.00 | 0.00 | 96 | 1014.6 |
| 20260507115831 | 48 | 281 | 1.0 | 1.0 | 0.00 | 0.00 | 0.00 | 96 | 1014.8 |
| 20260507115327 | 48 | 281 | 0.0 | 1.0 | 0.00 | 0.00 | 0.00 | 96 | 1014.7 |
| 20260507114822 | 48 | 282 | 0.0 | 1.0 | 0.00 | 0.00 | 0.00 | 97 | 1014.6 |
| 20260507114320 | 49 | 281 | 0.0 | 1.0 | 0.00 | 0.00 | 0.00 | 97 | 1014.7 |
| 20260507113817 | 49 | 282 | 2.0 | 4.0 | 0.00 | 0.00 | 0.00 | 97 | 1014.6 |
| 20260507113314 | 49 | 277 | 0.0 | 1.0 | 0.00 | 0.00 | 0.00 | 98 | 1014.3 |
| 20260507112812 | 49 | 277 | 2.0 | 2.0 | 0.00 | 0.00 | 0.00 | 98 | 1014.6 |
| 20260507112308 | 49 | 277 | 1.0 | 2.0 | 0.00 | 0.00 | 0.00 | 98 | 1014.6 |
| 20260507111807 | 49 | 277 | 0.0 | 0.0 | 0.00 | 0.00 | 0.00 | 98 | 1014.6 |
| 20260507111303 | 49 | 277 | 1.0 | 1.0 | 0.00 | 0.00 | 0.00 | 98 | 1014.2 |
| 20260507110759 | 49 | 277 | 0.0 | 0.0 | 0.00 | 0.00 | 0.00 | 98 | 1013.8 |
| 20260507110255 | 49 | 277 | 0.0 | 1.0 | 0.00 | 0.00 | 0.00 | 98 | 1014.2 |
| 20260507105752 | 49 | 277 | 1.0 | 1.0 | 0.00 | 0.00 | 0.00 | 98 | 1013.9 |
| 20260507105248 | 49 | 277 | 0.0 | 1.0 | 0.00 | 0.00 | 0.00 | 98 | 1013.9 |
| 20260507104746 | 49 | 277 | 0.0 | 1.0 | 0.00 | 0.00 | 0.00 | 98 | 1013.8 |
| 20260507104242 | 50 | 277 | 0.0 | 1.0 | 0.00 | 0.00 | 0.00 | 98 | 1013.8 |
| 20260507103738 | 50 | 277 | 0.0 | 0.0 | 0.00 | 0.00 | 0.00 | 98 | 1013.7 |
| 20260507103234 | 50 | 277 | 0.0 | 1.0 | 0.00 | 0.00 | 0.00 | 98 | 1013.7 |
| 20260507102730 | 50 | 277 | 0.0 | 0.0 | 0.00 | 0.00 | 0.00 | 98 | 1013.6 |
| 20260507102227 | 50 | 277 | 0.0 | 0.0 | 0.00 | 0.00 | 0.00 | 98 | 1013.9 |
| 20260507101723 | 50 | 277 | 1.0 | 2.0 | 0.00 | 0.00 | 0.00 | 98 | 1013.9 |
| 20260507101213 | 50 | 277 | 0.0 | 0.0 | 0.00 | 0.00 | 0.00 | 98 | 1013.3 |
| 20260507100711 | 50 | 277 | 0.0 | 0.0 | 0.00 | 0.00 | 0.00 | 98 | 1013.6 |
| 20260507100209 | 50 | 277 | 0.0 | 1.0 | 0.00 | 0.00 | 0.00 | 98 | 1013.7 |
| 20260507095707 | 50 | 277 | 0.0 | 0.0 | 0.00 | 0.00 | 0.00 | 98 | 1013.6 |
| 20260507095203 | 50 | 277 | 0.0 | 0.0 | 0.00 | 0.00 | 0.00 | 98 | 1013.5 |
| 20260507094700 | 50 | 277 | 0.0 | 1.0 | 0.00 | 0.00 | 0.00 | 98 | 1013.7 |
| 20260507094156 | 50 | 277 | 1.0 | 1.0 | 0.00 | 0.00 | 0.00 | 98 | 1013.8 |
| 20260507093654 | 50 | 277 | 0.0 | 1.0 | 0.00 | 0.00 | 0.00 | 98 | 1013.8 |
| 20260507093153 | 50 | 277 | 0.0 | 0.0 | 0.00 | 0.00 | 0.00 | 98 | 1013.7 |
| 20260507092649 | 50 | 277 | 0.0 | 0.0 | 0.00 | 0.00 | 0.00 | 98 | 1013.9 |
| 20260507092145 | 50 | 277 | 0.0 | 0.0 | 0.00 | 0.00 | 0.00 | 99 | 1014.0 |
| 20260507091642 | 50 | 277 | 1.0 | 1.0 | 0.00 | 0.00 | 0.00 | 99 | 1013.9 |
| 20260507091138 | 50 | 277 | 1.0 | 1.0 | 0.00 | 0.00 | 0.00 | 99 | 1013.7 |
| 20260507090634 | 50 | 277 | 1.0 | 1.0 | 0.00 | 0.00 | 0.00 | 99 | 1013.9 |
| 20260507090132 | 50 | 277 | 1.0 | 2.0 | 0.00 | 0.00 | 0.00 | 99 | 1013.9 |
| 20260507085628 | 51 | 272 | 1.0 | 1.0 | 0.00 | 0.00 | 0.00 | 99 | 1013.9 |
| 20260507085125 | 51 | 272 | 0.0 | 1.0 | 0.00 | 0.00 | 0.00 | 99 | 1014.0 |
| 20260507084621 | 51 | 272 | 0.0 | 1.0 | 0.00 | 0.00 | 0.00 | 99 | 1013.6 |
| 20260507084118 | 51 | 272 | 0.0 | 0.0 | 0.00 | 0.00 | 0.00 | 99 | 1013.6 |
| 20260507083615 | 51 | 272 | 0.0 | 0.0 | 0.00 | 0.00 | 0.00 | 98 | 1013.8 |
| 20260507083112 | 51 | 272 | 0.0 | 0.0 | 0.00 | 0.00 | 0.00 | 98 | 1013.9 |
| 20260507082608 | 51 | 272 | 1.0 | 1.0 | 0.00 | 0.00 | 0.00 | 98 | 1014.0 |
| 20260507082104 | 51 | 272 | 0.0 | 0.0 | 0.00 | 0.00 | 0.00 | 98 | 1013.9 |
| 20260507081601 | 51 | 272 | 0.0 | 0.0 | 0.00 | 0.00 | 0.00 | 98 | 1014.2 |
| 20260507081058 | 51 | 272 | 0.0 | 0.0 | 0.00 | 0.00 | 0.00 | 98 | 1014.2 |
| 20260507080554 | 51 | 272 | 0.0 | 0.0 | 0.00 | 0.00 | 0.00 | 98 | 1014.2 |
| 20260507080050 | 51 | 272 | 0.0 | 0.0 | 0.00 | 0.00 | 0.00 | 98 | 1013.6 |
| 20260507075545 | 51 | 272 | 1.0 | 1.0 | 0.00 | 0.00 | 0.00 | 98 | 1013.9 |
| 20260507075042 | 51 | 272 | 1.0 | 1.0 | 0.00 | 0.00 | 0.00 | 98 | 1013.7 |
| 20260507074539 | 51 | 272 | 1.0 | 1.0 | 0.00 | 0.00 | 0.00 | 98 | 1013.8 |
| 20260507074037 | 51 | 272 | 1.0 | 1.0 | 0.00 | 0.00 | 0.00 | 98 | 1013.7 |
| 20260507073533 | 51 | 272 | 0.0 | 0.0 | 0.00 | 0.00 | 0.00 | 98 | 1013.9 |